www.pogodaiklimat.ru

Погода и климат >> Архив погоды >> Канада >> Нунавут >> Холл Бич


ПОГОДА в Холл Бич

  • Прогноз погоды в Холл Бич
  • Монитор погоды в Холл Бич

АРХИВ ПОГОДЫ в Холл Бич

Время (UTC), дата Ветер
(напр.,м/с)
 
Видим.   Явления Облачность Т
(С)
Тd
(С)
f
(%)
Тe
(С)
Тes
(С)
Комфортность P
(гПа)
Po
(гПа)
Тmin
(С)
Tmax
(С)
R
(мм)
R24
(мм)
S
(см)
12 17.01 С 6 16 км ясно -36.5 -40.6 66 -52 -52 опасность
обморожения
1013.6 1012.3 -37.9 -36.6
15 17.01 С 7 8000 м дым ясно -36.3 -40.4 66 -52 -52 опасность
обморожения
1015.1 1013.8
18 17.01 С 7 4800 м дым ясно -35.6 -39.6 67 -51 -51 опасность
обморожения
1015.9 1014.6 -39.5 -35.5
21 17.01 С 7 9000 м дым ясно -35.6 -39.6 67 -52 -51 опасность
обморожения
1017.2 1015.9
00 18.01 С 6 16 км ясно -35.5 -39.5 67 -51 -51 опасность
обморожения
1018.0 1016.7 -37.8 -35.2
03 18.01 СЗ 7 16 км ясно -37.0 -41.1 65 -54 -54 опасность
обморожения
1018.1 1016.8
06 18.01 СЗ 7 16 км ясно -36.1 -40.0 67 -52 -52 опасность
обморожения
1018.0 1016.7 -37.8 -35.2
09 18.01 СЗ 7 16 км ясно -37.2 -41.3 65 -54 -54 опасность
обморожения
1018.5 1017.2
12 18.01 СЗ 6 16 км ясно -37.7 -41.9 65 -53 -53 опасность
обморожения
1017.9 1016.6 -37.7 -35.2
15 18.01 СЗ 5 16 км ясно -36.5 -40.6 66 -51 -51 опасность
обморожения
1017.8 1016.5
18 18.01 СЗ 10 2800 м дым ясно -34.9 -38.7 68 -53 -53 опасность
обморожения
1016.6 1015.3 -38.3 -34.9
21 18.01 СЗ 12 500 м в посл. час сильная метель 3/3 50 м
[]
-34.3 -38.0 69 -54 -54 опасность
обморожения
1015.4 1014.1
00 19.01 СЗ 11 700 м в посл. час сильная метель 10/10 1500 м
[]
-30.7 -34.1 72 -49 -49 опасность
обморожения
1013.4 1012.1 -38.3 -30.6 0.0
03 19.01 СЗ 11 700 м в посл. час сильная метель н/о -28.7 -31.8 75 -46 -46 опасность
обморожения
1010.4 1009.1
06 19.01 СЗ 13 500 м в посл. час сильная метель 10/10 600 м
[]
-28.5 -31.5 75 -47 -47 опасность
обморожения
1008.2 1006.9 -38.3 -28.5 0.0 2
09 19.01 СЗ 7 16 км 9/0
[]
-30.1 -33.3 74 -45 -45 опасность
обморожения
1005.9 1004.6
12 19.01 СЗ 6 4800 м слаб. снег 10/10 600 м
[]
-29.2 -32.3 74 -42 -42 опасность
обморожения
1004.0 1002.7 -30.8 -28.5
15 19.01 З 4 16 км слаб. снег 5/5 1000 м
[]
-30.6 -34.0 72 -42 -42 опасность
обморожения
1001.7 1000.4
18 19.01 ЮЗ 4 11 км слаб. снег 10/10 1500 м
[]
-28.8 -31.9 74 -40 -40 опасность
обморожения
999.7 998.4 -34.9 -28.2
21 19.01 З 4 4800 м слаб. снег {осадки} 9/9 1500 м
[]
-27.3 -30.2 76 -37 -37 опасность
обморожения
998.2 996.9
00 20.01 З 4 9000 м слаб. снег {осадки} 10/10 1000 м
[]
-27.5 -30.4 76 -38 -38 опасность
обморожения
997.3 996.0 -30.7 -26.0 0.0
03 20.01 З 5 16 км 3/3 1500 м
[]
-29.8 -33.1 73 -42 -42 опасность
обморожения
996.7 995.4
06 20.01 СЗ 7 16 км ясно -32.3 -35.8 71 -47 -47 опасность
обморожения
996.3 995.0 -32.3 -26.0 71
09 20.01 СЗ 7 16 км ясно -33.8 -37.4 70 -49 -49 опасность
обморожения
996.8 995.5
12 20.01 СЗ 8 8000 м дым ясно -34.0 -37.7 69 -51 -51 опасность
обморожения
997.7 996.4 -34.0 -26.0
15 20.01 СЗ 6 12 км ясно -35.4 -39.2 68 -51 -51 опасность
обморожения
998.1 996.8
18 20.01 СЗ 7 9000 м дым 3/3 600 м
[]
-35.2 -39.0 68 -51 -51 опасность
обморожения
998.4 997.1 -35.7 -32.3
21 20.01 СЗ 3 16 км ясно -37.3 -41.5 65 -47 -45 опасность
обморожения
999.7 998.4
00 21.01 З 2 8000 м слаб. снег 10/10 1000 м
[]
-33.9 -37.6 69 -41 -41 опасность
обморожения
1000.2 998.9 -37.6 -33.3
03 21.01 ЮЗ 3 2000 м слаб. снег 10/10 600 м
[]
-34.1 -37.8 69 -44 -44 опасность
обморожения
1001.0 999.7
06 21.01 С 3 2800 м слаб. снег 10/10 300 м
[]
-32.3 -35.6 72 -42 -42 опасность
обморожения
1000.6 999.3 -37.6 -32.2 121
09 21.01 ЮВ 5 4000 м дым 10/10 300 м
[]
-28.8 -31.9 74 -41 -41 опасность
обморожения
1000.9 999.6
12 21.01 ЮЗ 3 16 км 5/5 300 м
[]
-34.9 -38.9 67 -45 -45 опасность
обморожения
1001.5 1000.2 -35.1 -32.2
15 21.01 СЗ 5 16 км 3/3 300 м
[]
-39.5 -43.9 63 -55 -55 опасность
обморожения
1002.6 1001.3
18 21.01 СЗ 6 16 км ясно -40.4 -44.9 62 -56 -56 опасность
обморожения
1003.6 1002.3 -40.4 -28.8
21 21.01 СЗ 7 16 км ясно -40.6 -45.0 62 -58 -57 опасность
обморожения
1004.7 1003.4
00 22.01 СЗ 7 16 км ясно -40.4 -44.8 62 -58 -58 опасность
обморожения
1004.9 1003.6 -40.9 -35.0
03 22.01 СЗ 8 6000 м дым 5/5 300 м
[]
-38.6 -42.9 64 -56 -56 опасность
обморожения
1004.9 1003.6
06 22.01 СЗ 8 6000 м слаб. снег 10/0 2000 м
[]
-36.8 -40.9 66 -54 -54 опасность
обморожения
1004.4 1003.1 -40.9 -28.8 3
09 22.01 СЗ 7 4000 м слаб. снег 10/10 1000 м
[]
-35.6 -39.6 67 -51 -51 опасность
обморожения
1004.0 1002.7
12 22.01 СЗ 7 14 км 10/10 600 м
[]
-36.3 -40.2 67 -52 -52 опасность
обморожения
1003.6 1002.3 -40.4 -28.8
15 22.01 СЗ 8 3200 м слаб. снег 10/10 1000 м
[]
-35.7 -39.7 67 -53 -53 опасность
обморожения
1002.7 1001.4
18 22.01 СЗ 9 2000 м слаб. снег 10/10 1000 м
[]
-35.9 -39.9 66 -54 -54 опасность
обморожения
1002.3 1001.0 -40.9 -35.5
21 22.01 З 8 2000 м слаб. снег 9/9 600 м
[]
-36.0 -39.9 67 -53 -53 опасность
обморожения
1002.2 1000.9
00 23.01 З 6 16 км ясно -38.3 -42.6 64 -54 -54 опасность
обморожения
1003.4 1002.1 -38.3 -35.5
03 23.01 З 5 16 км ясно -41.0 -45.5 62 -56 -56 опасность
обморожения
1003.4 1002.1
06 23.01 З 4 8000 м дым 9/9 1000 м
[]
-39.6 -44.0 63 -53 -53 опасность
обморожения
1004.3 1003.0 -41.1 -35.5 181
09 23.01 З 5 16 км ясно -40.8 -45.3 62 -55 -55 опасность
обморожения
1004.9 1003.6
12 23.01 СЗ 4 16 км 3/3 600 м
[]
-40.9 -45.3 62 -54 -54 опасность
обморожения
1005.1 1003.8 -42.0 -35.5
15 23.01 СЗ 3 11 км ясно -41.3 -46.0 60 -53 -53 опасность
обморожения
1005.2 1003.9
18 23.01 СЗ 4 1600 м дым н/о -39.1 -43.4 64 -52 -52 опасность
обморожения
1006.2 1004.9 -42.8 -39.0
21 23.01 С 3 2800 м дым 10/10 200 м
[]
-39.9 -44.3 63 -52 -52 опасность
обморожения
1007.7 1006.4
00 24.01 ЮВ 4 12 км 9/9 300 м
[]
-34.9 -38.9 67 -47 -47 опасность
обморожения
1008.8 1007.5 -42.8 -34.2
03 24.01 Ю 5 6000 м дым 9/9 300 м
[]
-34.9 -38.7 68 -48 -48 опасность
обморожения
1009.8 1008.5
06 24.01 ЮВ 5 8000 м дым 9/9 300 м
[]
-33.9 -37.5 70 -47 -47 опасность
обморожения
1011.5 1010.2 -42.8 -33.9
09 24.01 Ю 5 16 км ясно -35.6 -39.6 67 -49 -49 опасность
обморожения
1012.7 1011.4

 

Местоположение метеостанции Холл Бич (Нунавут, Канада): широта 50.00 долгота -123.12 высота над уровнем моря 883 м.

В архиве по умолчанию представлена погода в Холл Бич за последнюю неделю. Архивные данные за месяц целиком и за предыдущие месяцы, начиная с января 2011 года, Вы можете получить, выбрав интересующий диапазон дат из раскрывающегося списка и нажав кнопку "Ввод!".


*Определитесь, кто Вы:
робот инопланетянин человек

Внимание! Время в таблицах - всемирное. Для получения местного времени необходимо прибавить поправку, которая равна -8 ч.

Смотрите также архив погоды в соседних городах и на ближайших метеорологических станциях:

Погода в Долине Каллагхан (Британская Колумбия, Канада) (13 км)
Погода в Шеффервилл аэропорту (Квебек, Канада) (15 км)
Погода в Эрлтоне аэропорт (Онтарио, Канада) (18 км)
Погода в Ревелстоке (Британская Колумбия, Канада) (18 км)
Погода в Блэккомбе (Британская Колумбия, Канада) (18 км)
Погода в Дис Лейк (Британская Колумбия, Канада) (18 км)
Погода в Уистлере (Британская Колумбия, Канада) (19 км)
Погода на Базе Блэккомб (Британская Колумбия, Канада) (21 км)
Погода в Сквамише (Британская Колумбия, Канада) (25 км)
Погода в Пембертоне (Британская Колумбия, Канада) (45 км)

Пояснения к столбцам:

Ветер - указаны скорость ветра в м/с - средняя за 10 мин, порывы в срок и между сроками (в фигурных скобках) и направление, откуда дует ветер: С - северный, СВ - северо-восточный, В - восточный, ЮВ - юго-восточный, Ю - южный, ЮЗ - юго-западный, З - западный, СЗ - северо-западный.
Видимость - горизонтальная дальность видимости в метрах или километрах. При видимости от 1 до 10 км при отсутствии осадков обычно наблюдается дымка, при ухудшении видимости до 1 км и менее - туман. В сухую погоду видимость может ухудшаться дымом, пылью или мглою.
Явления - указаны атмосферные явления, наблюдавшиеся в срок или в последний час перед сроком; фигурными скобками обозначены явления, наблюдавшиеся между сроками (за 1-3 часа до срока); квадратными скобками обозначены град или гололедные отложения с указанием их диаметра в мм.
Облачность - указаны через наклонную черту общая и нижняя облачность в баллах и высота нижней границы облаков в метрах; квадратными скобками обозначены формы облаков: Ci - перистые, Cs - перисто-слоистые, Cc - перисто-кучевые, Ac - высококучевые, As - высокослоистые, Sc - слоисто-кучевые, Ns - слоисто-дождевые, Cu - кучевые, Cb - кучево-дождевые. Подробнее классификацию облаков см. в Атласе облаков (PDF).
T - Температура воздуха - температура, измеренная на высоте 2 м над землей.
Td - Температура точки росы - температура, при понижении до которой содержащийся в воздухе водяной пар достигнет насыщения.
f - Относительная влажность воздуха - влажноcть воздуха, измеренная на высоте 2 м над землей.
Te - Эффективная температура - температура, которую ощущает одетый по сезону человек в тени. Характеристика душности погоды. При расчете учитывается влияние влажности воздуха и скорости ветра на теплоощущения человека.
Tes - Эффективная температура на солнце - температура, которую ощущает человек, с поправкой на солнечный нагрев. Характеристика знойности погоды. Зависит от высоты солнца над горизонтом, облачности и скорости ветра. Ночью, в пасмурную погоду, а также при ветре 12 м/с и более поправка равна нулю.
P - Атмосферное давление - приведенное к уровню моря атмосферное давление.
Po - Атмосферное давление - измеренное на уровне метеостанции атмосферное давление.
Tmin - Минимальная температура - минимум температуры воздуха на высоте 2 м над землей.
Tmax - Максимальная температура - максимум температуры воздуха на высоте 2 м над землей.
R - Количество осадков - Количество выпавших осадков за период времени, мм. При наведении курсора мыши на число - период времени, за который выпало указанное количество осадков.
R24 - Количество осадков - Количество выпавших осадков за 24 часа, мм.
S - Снежный покров - Высота снежного покрова, см. При наведении курсора мыши на число - состояние снежного покрова и степень покрытия местности в баллах.